Location: Serin Observatory
(40.5200°N, 74.4500°W)
Time: 19:36:04
(UTC+00:00)

SL-8 R/B - Visible Passes

Search period start: 31 July 2014 00:00
Search period end: 10 August 2014 00:00
Orbit: 659 x 670 km, 48.4° (Epoch: 30 July)

Date Brightness Start Highest point End Pass type
(mag) Time Alt. Az. Time Alt. Az. Time Alt. Az.
31 Jul 5.7 09:05:46 10° S 09:09:12 20° SE 09:12:39 10° E visible
02 Aug 5.5 08:26:59 12° S 08:30:12 22° SE 08:33:50 10° E visible
03 Aug 4.2 08:57:33 13° SW 09:01:41 51° SE 09:06:20 10° ENE visible
04 Aug 5.2 07:50:00 21° SSE 07:51:13 24° SE 07:55:01 10° E visible
05 Aug 4.0 08:20:27 28° SSW 08:22:43 55° SE 08:27:24 10° ENE visible
06 Aug 5.2 07:12:48 25° ESE 07:12:48 25° ESE 07:16:10 10° E visible
06 Aug 3.8 08:50:50 17° WSW 08:54:30 73° NNW 08:59:18 10° ENE visible
07 Aug 3.8 07:43:09 55° S 07:43:45 60° SE 07:48:28 10° ENE visible
07 Aug 4.6 09:21:57 10° W 09:26:31 43° NNW 09:31:06 10° NE visible
08 Aug 5.7 06:35:26 20° E 06:35:26 20° E 06:37:19 10° ENE visible
08 Aug 3.8 08:13:27 32° W 08:15:33 68° NNW 08:20:20 10° ENE visible
09 Aug 4.2 07:05:42 53° E 07:05:42 53° E 07:09:32 10° ENE visible
09 Aug 4.7 08:43:43 14° W 08:47:36 41° NNW 08:52:09 10° NE visible
